Location: Cahas Mountain Overlook
(37.0833°N, 80.1000°W)
Time: 15:32:53
(UTC-04:00)

SR - Visible Passes

Search period start: 13 June 2024 00:00
Search period end: 23 June 2024 00:00
Orbit: 580 x 858 km, 66.7° (Epoch: 13 June)

Date Brightness Start Highest point End Pass type
(mag) Time Alt. Az. Time Alt. Az. Time Alt. Az.
13 Jun ? 21:11:48 10° NNE 21:13:04 11° NE 21:14:19 10° ENE visible
13 Jun ? 22:51:09 10° NNW 22:55:21 72° WSW 22:56:13 53° S visible
14 Jun ? 21:58:59 10° NNW 22:03:02 43° ENE 22:05:22 22° ESE visible
14 Jun ? 23:42:13 10° WNW 23:44:26 14° WSW 23:44:36 14° WSW visible
15 Jun ? 21:07:26 10° N 21:10:30 19° NE 21:13:35 10° E visible
15 Jun ? 22:48:31 10° NW 22:52:23 35° WSW 22:53:48 28° SSW visible
16 Jun ? 21:55:56 10° NNW 22:00:10 86° ENE 22:03:03 20° SSE visible
17 Jun ? 22:46:21 10° WNW 22:49:19 19° WSW 22:51:35 13° SW visible
18 Jun ? 21:53:08 10° NW 21:57:12 47° WSW 22:00:56 13° S visible
20 Jun ? 21:50:42 10° NW 21:54:10 25° WSW 21:57:42 10° SSW visible
22 Jun ? 21:49:05 10° W 21:51:01 13° WSW 21:52:59 10° SW visible
